owner,sensor,date,latitude,longitude,vertical_datum,sea_water_temperature,qcFlag 
NERRS,ioos:station:NOAA.NERRS:marcewq:1,2013-09-03T22:30:00Z,28.1323,-97.0344,0.0,30.8,2 
NERRS,ioos:station:NOAA.NERRS:marcewq:1,2013-09-04T00:00:00Z,28.1323,-97.0344,0.0,30.7,2 
NERRS,ioos:station:NOAA.NERRS:marcewq:1,2013-09-04T00:30:00Z,28.1323,-97.0344,0.0,30.6,2 
NERRS,ioos:station:NOAA.NERRS:marcewq:1,2013-09-04T01:00:00Z,28.1323,-97.0344,0.0,30.6,2 
NERRS,ioos:station:NOAA.NERRS:marcewq:1,2013-09-04T01:30:00Z,28.1323,-97.0344,0.0,30.7,2 
NERRS,ioos:station:NOAA.NERRS:marcewq:1,2013-09-04T02:00:00Z,28.1323,-97.0344,0.0,30.7,2 
NERRS,ioos:station:NOAA.NERRS:marcewq:1,2013-09-04T02:30:00Z,28.1323,-97.0344,0.0,30.7,2 
NERRS,ioos:station:NOAA.NERRS:marcewq:1,2013-09-04T04:00:00Z,28.1323,-97.0344,0.0,30.5,2 
NERRS,ioos:station:NOAA.NERRS:marcewq:1,2013-09-04T04:30:00Z,28.1323,-97.0344,0.0,30.5,2 
NERRS,ioos:station:NOAA.NERRS:marcewq:1,2013-09-04T05:00:00Z,28.1323,-97.0344,0.0,30.6,2 
NERRS,ioos:station:NOAA.NERRS:marcewq:1,2013-09-04T05:30:00Z,28.1323,-97.0344,0.0,30.5,2 
NERRS,ioos:station:NOAA.NERRS:marcewq:1,2013-09-04T06:00:00Z,28.1323,-97.0344,0.0,30.5,2 
NERRS,ioos:station:NOAA.NERRS:marcewq:1,2013-09-04T07:30:00Z,28.1323,-97.0344,0.0,30.2,2 
NERRS,ioos:station:NOAA.NERRS:marcewq:1,2013-09-04T08:00:00Z,28.1323,-97.0344,0.0,30.1,2 
NERRS,ioos:station:NOAA.NERRS:marcewq:1,2013-09-04T10:30:00Z,28.1323,-97.0344,0.0,30.0,2 
NERRS,ioos:station:NOAA.NERRS:marcewq:1,2013-09-04T12:00:00Z,28.1323,-97.0344,0.0,30.0,2 
NERRS,ioos:station:NOAA.NERRS:marcewq:1,2013-09-04T12:30:00Z,28.1323,-97.0344,0.0,29.9,2 
NERRS,ioos:station:NOAA.NERRS:marcewq:1,2013-09-04T13:30:00Z,28.1323,-97.0344,0.0,29.8,2 
NERRS,ioos:station:NOAA.NERRS:marcewq:1,2013-09-04T14:00:00Z,28.1323,-97.0344,0.0,29.8,2 
NERRS,ioos:station:NOAA.NERRS:marcewq:1,2013-09-04T14:30:00Z,28.1323,-97.0344,0.0,29.9,2 
NERRS,ioos:station:NOAA.NERRS:marcewq:1,2013-09-04T17:00:00Z,28.1323,-97.0344,0.0,29.9,2 
NERRS,ioos:station:NOAA.NERRS:marcewq:1,2013-09-04T17:30:00Z,28.1323,-97.0344,0.0,30.0,2 
NERRS,ioos:station:NOAA.NERRS:marcewq:1,2013-09-04T18:00:00Z,28.1323,-97.0344,0.0,30.4,2 
NERRS,ioos:station:NOAA.NERRS:marcewq:1,2013-09-04T18:30:00Z,28.1323,-97.0344,0.0,30.4,2 
NERRS,ioos:station:NOAA.NERRS:marcewq:1,2013-09-04T19:00:00Z,28.1323,-97.0344,0.0,30.4,2 
NERRS,ioos:station:NOAA.NERRS:marcewq:1,2013-09-04T20:30:00Z,28.1323,-97.0344,0.0,31.1,2 
NERRS,ioos:station:NOAA.NERRS:marcewq:1,2013-09-04T23:00:00Z,28.1323,-97.0344,0.0,31.3,2 
NERRS,ioos:station:NOAA.NERRS:marcewq:1,2013-09-04T23:30:00Z,28.1323,-97.0344,0.0,31.3,2 
NERRS,ioos:station:NOAA.NERRS:marcewq:1,2013-09-05T00:00:00Z,28.1323,-97.0344,0.0,31.2,2 
NERRS,ioos:station:NOAA.NERRS:marcewq:1,2013-09-05T00:30:00Z,28.1323,-97.0344,0.0,31.2,2 
NERRS,ioos:station:NOAA.NERRS:marcewq:1,2013-09-05T01:00:00Z,28.1323,-97.0344,0.0,31.2,2 
NERRS,ioos:station:NOAA.NERRS:marcewq:1,2013-09-05T02:00:00Z,28.1323,-97.0344,0.0,31.0,2 
NERRS,ioos:station:NOAA.NERRS:marcewq:1,2013-09-05T02:30:00Z,28.1323,-97.0344,0.0,31.0,2 
NERRS,ioos:station:NOAA.NERRS:marcewq:1,2013-09-05T03:00:00Z,28.1323,-97.0344,0.0,31.0,2 
NERRS,ioos:station:NOAA.NERRS:marcewq:1,2013-09-05T03:30:00Z,28.1323,-97.0344,0.0,30.9,2 
NERRS,ioos:station:NOAA.NERRS:marcewq:1,2013-09-05T04:00:00Z,28.1323,-97.0344,0.0,30.8,2 
NERRS,ioos:station:NOAA.NERRS:marcewq:1,2013-09-05T04:30:00Z,28.1323,-97.0344,0.0,30.7,2 
NERRS,ioos:station:NOAA.NERRS:marcewq:1,2013-09-05T05:00:00Z,28.1323,-97.0344,0.0,30.7,2 
NERRS,ioos:station:NOAA.NERRS:marcewq:1,2013-09-05T05:30:00Z,28.1323,-97.0344,0.0,30.8,2 
NERRS,ioos:station:NOAA.NERRS:marcewq:1,2013-09-05T07:00:00Z,28.1323,-97.0344,0.0,30.7,2 
NERRS,ioos:station:NOAA.NERRS:marcewq:1,2013-09-05T07:30:00Z,28.1323,-97.0344,0.0,30.7,2 
NERRS,ioos:station:NOAA.NERRS:marcewq:1,2013-09-05T08:00:00Z,28.1323,-97.0344,0.0,30.6,2 
NERRS,ioos:station:NOAA.NERRS:marcewq:1,2013-09-05T08:30:00Z,28.1323,-97.0344,0.0,30.5,2 
NERRS,ioos:station:NOAA.NERRS:marcewq:1,2013-09-05T09:00:00Z,28.1323,-97.0344,0.0,30.5,2 
NERRS,ioos:station:NOAA.NERRS:marcewq:1,2013-09-05T09:30:00Z,28.1323,-97.0344,0.0,30.5,2 
NERRS,ioos:station:NOAA.NERRS:marcewq:1,2013-09-05T10:00:00Z,28.1323,-97.0344,0.0,30.5,2 
NERRS,ioos:station:NOAA.NERRS:marcewq:1,2013-09-05T10:30:00Z,28.1323,-97.0344,0.0,30.4,2 
NERRS,ioos:station:NOAA.NERRS:marcewq:1,2013-09-05T11:00:00Z,28.1323,-97.0344,0.0,30.3,2 
NERRS,ioos:station:NOAA.NERRS:marcewq:1,2013-09-05T11:30:00Z,28.1323,-97.0344,0.0,30.3,2 
NERRS,ioos:station:NOAA.NERRS:marcewq:1,2013-09-05T12:00:00Z,28.1323,-97.0344,0.0,30.3,2 
NERRS,ioos:station:NOAA.NERRS:marcewq:1,2013-09-05T12:30:00Z,28.1323,-97.0344,0.0,30.3,2 
NERRS,ioos:station:NOAA.NERRS:marcewq:1,2013-09-05T13:00:00Z,28.1323,-97.0344,0.0,30.3,2 
NERRS,ioos:station:NOAA.NERRS:marcewq:1,2013-09-05T13:30:00Z,28.1323,-97.0344,0.0,30.3,2 
NERRS,ioos:station:NOAA.NERRS:marcewq:1,2013-09-05T14:00:00Z,28.1323,-97.0344,0.0,30.3,2 
NERRS,ioos:station:NOAA.NERRS:marcewq:1,2013-09-05T14:30:00Z,28.1323,-97.0344,0.0,30.3,2 
NERRS,ioos:station:NOAA.NERRS:marcewq:1,2013-09-05T15:00:00Z,28.1323,-97.0344,0.0,30.3,2 
NERRS,ioos:station:NOAA.NERRS:marcewq:1,2013-09-05T15:30:00Z,28.1323,-97.0344,0.0,30.2,2 
NERRS,ioos:station:NOAA.NERRS:marcewq:1,2013-09-05T16:00:00Z,28.1323,-97.0344,0.0,30.3,2 
NERRS,ioos:station:NOAA.NERRS:marcewq:1,2013-09-05T16:30:00Z,28.1323,-97.0344,0.0,30.4,2 
NERRS,ioos:station:NOAA.NERRS:marcewq:1,2013-09-05T17:00:00Z,28.1323,-97.0344,0.0,30.4,2 
NERRS,ioos:station:NOAA.NERRS:marcewq:1,2013-09-05T17:30:00Z,28.1323,-97.0344,0.0,30.5,2 
NERRS,ioos:station:NOAA.NERRS:marcewq:1,2013-09-05T18:00:00Z,28.1323,-97.0344,0.0,30.6,2 
NERRS,ioos:station:NOAA.NERRS:marcewq:1,2013-09-05T22:30:00Z,28.1323,-97.0344,0.0,31.0,2 
NERRS,ioos:station:NOAA.NERRS:marcewq:1,2013-09-06T00:00:00Z,28.1323,-97.0344,0.0,31.0,2 
NERRS,ioos:station:NOAA.NERRS:marcewq:1,2013-09-06T00:30:00Z,28.1323,-97.0344,0.0,30.9,2 
NERRS,ioos:station:NOAA.NERRS:marcewq:1,2013-09-06T01:00:00Z,28.1323,-97.0344,0.0,30.9,2 
NERRS,ioos:station:NOAA.NERRS:marcewq:1,2013-09-06T01:30:00Z,28.1323,-97.0344,0.0,30.9,2 
NERRS,ioos:station:NOAA.NERRS:marcewq:1,2013-09-06T02:00:00Z,28.1323,-97.0344,0.0,30.8,2 
NERRS,ioos:station:NOAA.NERRS:marcewq:1,2013-09-06T02:30:00Z,28.1323,-97.0344,0.0,30.8,2 
NERRS,ioos:station:NOAA.NERRS:marcewq:1,2013-09-06T03:00:00Z,28.1323,-97.0344,0.0,30.7,2 
NERRS,ioos:station:NOAA.NERRS:marcewq:1,2013-09-06T03:30:00Z,28.1323,-97.0344,0.0,30.6,2 
NERRS,ioos:station:NOAA.NERRS:marcewq:1,2013-09-06T04:00:00Z,28.1323,-97.0344,0.0,30.6,2 
NERRS,ioos:station:NOAA.NERRS:marcewq:1,2013-09-06T04:30:00Z,28.1323,-97.0344,0.0,30.6,2 
NERRS,ioos:station:NOAA.NERRS:marcewq:1,2013-09-06T05:00:00Z,28.1323,-97.0344,0.0,30.6,2 
NERRS,ioos:station:NOAA.NERRS:marcewq:1,2013-09-06T05:30:00Z,28.1323,-97.0344,0.0,30.5,2 
NERRS,ioos:station:NOAA.NERRS:marcewq:1,2013-09-06T06:00:00Z,28.1323,-97.0344,0.0,30.5,2 
NERRS,ioos:station:NOAA.NERRS:marcewq:1,2013-09-06T07:00:00Z,28.1323,-97.0344,0.0,30.4,2 
NERRS,ioos:station:NOAA.NERRS:marcewq:1,2013-09-06T07:30:00Z,28.1323,-97.0344,0.0,30.5,2 
NERRS,ioos:station:NOAA.NERRS:marcewq:1,2013-09-06T08:00:00Z,28.1323,-97.0344,0.0,30.4,2 
NERRS,ioos:station:NOAA.NERRS:marcewq:1,2013-09-06T08:30:00Z,28.1323,-97.0344,0.0,30.4,2 
NERRS,ioos:station:NOAA.NERRS:marcewq:1,2013-09-06T09:00:00Z,28.1323,-97.0344,0.0,30.3,2 
NERRS,ioos:station:NOAA.NERRS:marcewq:1,2013-09-06T09:30:00Z,28.1323,-97.0344,0.0,30.3,2 
NERRS,ioos:station:NOAA.NERRS:marcewq:1,2013-09-06T10:00:00Z,28.1323,-97.0344,0.0,30.2,2 
NERRS,ioos:station:NOAA.NERRS:marcewq:1,2013-09-06T10:30:00Z,28.1323,-97.0344,0.0,30.2,2 
NERRS,ioos:station:NOAA.NERRS:marcewq:1,2013-09-06T11:00:00Z,28.1323,-97.0344,0.0,30.2,2 
NERRS,ioos:station:NOAA.NERRS:marcewq:1,2013-09-06T11:30:00Z,28.1323,-97.0344,0.0,30.2,2 
NERRS,ioos:station:NOAA.NERRS:marcewq:1,2013-09-06T12:00:00Z,28.1323,-97.0344,0.0,30.1,2 
NERRS,ioos:station:NOAA.NERRS:marcewq:1,2013-09-06T12:30:00Z,28.1323,-97.0344,0.0,30.1,2 
NERRS,ioos:station:NOAA.NERRS:marcewq:1,2013-09-06T13:00:00Z,28.1323,-97.0344,0.0,30.1,2 
NERRS,ioos:station:NOAA.NERRS:marcewq:1,2013-09-06T13:30:00Z,28.1323,-97.0344,0.0,30.0,2 
NERRS,ioos:station:NOAA.NERRS:marcewq:1,2013-09-06T14:00:00Z,28.1323,-97.0344,0.0,30.1,2 
NERRS,ioos:station:NOAA.NERRS:marcewq:1,2013-09-06T14:30:00Z,28.1323,-97.0344,0.0,30.1,2 
NERRS,ioos:station:NOAA.NERRS:marcewq:1,2013-09-06T15:00:00Z,28.1323,-97.0344,0.0,30.1,2 
NERRS,ioos:station:NOAA.NERRS:marcewq:1,2013-09-06T15:30:00Z,28.1323,-97.0344,0.0,30.1,2 
NERRS,ioos:station:NOAA.NERRS:marcewq:1,2013-09-06T16:00:00Z,28.1323,-97.0344,0.0,30.2,2 
NERRS,ioos:station:NOAA.NERRS:marcewq:1,2013-09-06T16:30:00Z,28.1323,-97.0344,0.0,30.2,2 
NERRS,ioos:station:NOAA.NERRS:marcewq:1,2013-09-06T17:00:00Z,28.1323,-97.0344,0.0,30.1,2 
NERRS,ioos:station:NOAA.NERRS:marcewq:1,2013-09-06T17:30:00Z,28.1323,-97.0344,0.0,30.2,2 
NERRS,ioos:station:NOAA.NERRS:marcewq:1,2013-09-06T18:00:00Z,28.1323,-97.0344,0.0,30.3,2 
NERRS,ioos:station:NOAA.NERRS:marcewq:1,2013-09-06T20:00:00Z,28.1323,-97.0344,0.0,30.4,2 
NERRS,ioos:station:NOAA.NERRS:marcewq:1,2013-09-06T20:30:00Z,28.1323,-97.0344,0.0,30.6,2 
NERRS,ioos:station:NOAA.NERRS:marcewq:1,2013-09-06T21:00:00Z,28.1323,-97.0344,0.0,30.5,2 
NERRS,ioos:station:NOAA.NERRS:marcewq:1,2013-09-06T21:30:00Z,28.1323,-97.0344,0.0,30.6,2 
NERRS,ioos:station:NOAA.NERRS:marcewq:1,2013-09-06T22:00:00Z,28.1323,-97.0344,0.0,30.6,2 
NERRS,ioos:station:NOAA.NERRS:marcewq:1,2013-09-06T22:30:00Z,28.1323,-97.0344,0.0,30.7,2 
NERRS,ioos:station:NOAA.NERRS:marcewq:1,2013-09-06T23:30:00Z,28.1323,-97.0344,0.0,30.9,2 
NERRS,ioos:station:NOAA.NERRS:marcewq:1,2013-09-07T00:00:00Z,28.1323,-97.0344,0.0,30.8,2 
NERRS,ioos:station:NOAA.NERRS:marcewq:1,2013-09-07T00:30:00Z,28.1323,-97.0344,0.0,30.7,2 
NERRS,ioos:station:NOAA.NERRS:marcewq:1,2013-09-07T01:00:00Z,28.1323,-97.0344,0.0,30.7,2 
NERRS,ioos:station:NOAA.NERRS:marcewq:1,2013-09-07T01:30:00Z,28.1323,-97.0344,0.0,30.6,2 
NERRS,ioos:station:NOAA.NERRS:marcewq:1,2013-09-07T02:00:00Z,28.1323,-97.0344,0.0,30.6,2 
NERRS,ioos:station:NOAA.NERRS:marcewq:1,2013-09-07T02:30:00Z,28.1323,-97.0344,0.0,30.6,2 
NERRS,ioos:station:NOAA.NERRS:marcewq:1,2013-09-07T03:00:00Z,28.1323,-97.0344,0.0,30.5,2 
NERRS,ioos:station:NOAA.NERRS:marcewq:1,2013-09-07T04:00:00Z,28.1323,-97.0344,0.0,30.5,2 
NERRS,ioos:station:NOAA.NERRS:marcewq:1,2013-09-07T04:30:00Z,28.1323,-97.0344,0.0,30.4,2 
NERRS,ioos:station:NOAA.NERRS:marcewq:1,2013-09-07T05:00:00Z,28.1323,-97.0344,0.0,30.4,2 
NERRS,ioos:station:NOAA.NERRS:marcewq:1,2013-09-07T05:30:00Z,28.1323,-97.0344,0.0,30.4,2 
NERRS,ioos:station:NOAA.NERRS:marcewq:1,2013-09-07T07:00:00Z,28.1323,-97.0344,0.0,30.3,2 
NERRS,ioos:station:NOAA.NERRS:marcewq:1,2013-09-07T07:30:00Z,28.1323,-97.0344,0.0,30.2,2 
NERRS,ioos:station:NOAA.NERRS:marcewq:1,2013-09-07T08:30:00Z,28.1323,-97.0344,0.0,30.2,2 
NERRS,ioos:station:NOAA.NERRS:marcewq:1,2013-09-07T09:00:00Z,28.1323,-97.0344,0.0,30.2,2 
NERRS,ioos:station:NOAA.NERRS:marcewq:1,2013-09-07T09:30:00Z,28.1323,-97.0344,0.0,30.2,2 
NERRS,ioos:station:NOAA.NERRS:marcewq:1,2013-09-07T10:30:00Z,28.1323,-97.0344,0.0,30.4,2 
NERRS,ioos:station:NOAA.NERRS:marcewq:1,2013-09-07T11:00:00Z,28.1323,-97.0344,0.0,30.3,2 
NERRS,ioos:station:NOAA.NERRS:marcewq:1,2013-09-07T11:30:00Z,28.1323,-97.0344,0.0,30.1,2 
NERRS,ioos:station:NOAA.NERRS:marcewq:1,2013-09-07T12:00:00Z,28.1323,-97.0344,0.0,30.1,2 
NERRS,ioos:station:NOAA.NERRS:marcewq:1,2013-09-07T12:30:00Z,28.1323,-97.0344,0.0,30.1,2 
NERRS,ioos:station:NOAA.NERRS:marcewq:1,2013-09-07T13:00:00Z,28.1323,-97.0344,0.0,30.5,2 
NERRS,ioos:station:NOAA.NERRS:marcewq:1,2013-09-07T13:30:00Z,28.1323,-97.0344,0.0,30.1,2 
NERRS,ioos:station:NOAA.NERRS:marcewq:1,2013-09-07T14:00:00Z,28.1323,-97.0344,0.0,30.4,2 
NERRS,ioos:station:NOAA.NERRS:marcewq:1,2013-09-07T14:30:00Z,28.1323,-97.0344,0.0,30.0,2 
NERRS,ioos:station:NOAA.NERRS:marcewq:1,2013-09-07T15:00:00Z,28.1323,-97.0344,0.0,30.0,2 
NERRS,ioos:station:NOAA.NERRS:marcewq:1,2013-09-07T15:30:00Z,28.1323,-97.0344,0.0,30.3,2 
NERRS,ioos:station:NOAA.NERRS:marcewq:1,2013-09-07T16:00:00Z,28.1323,-97.0344,0.0,30.1,2 
NERRS,ioos:station:NOAA.NERRS:marcewq:1,2013-09-07T16:30:00Z,28.1323,-97.0344,0.0,30.2,2 
NERRS,ioos:station:NOAA.NERRS:marcewq:1,2013-09-07T17:00:00Z,28.1323,-97.0344,0.0,30.2,2 
NERRS,ioos:station:NOAA.NERRS:marcewq:1,2013-09-07T17:30:00Z,28.1323,-97.0344,0.0,30.1,2 
NERRS,ioos:station:NOAA.NERRS:marcewq:1,2013-09-07T18:30:00Z,28.1323,-97.0344,0.0,30.2,2 
NERRS,ioos:station:NOAA.NERRS:marcewq:1,2013-09-07T21:30:00Z,28.1323,-97.0344,0.0,30.8,2 
NERRS,ioos:station:NOAA.NERRS:marcewq:1,2013-09-07T22:00:00Z,28.1323,-97.0344,0.0,30.8,2 
NERRS,ioos:station:NOAA.NERRS:marcewq:1,2013-09-07T22:30:00Z,28.1323,-97.0344,0.0,31.0,2 
NERRS,ioos:station:NOAA.NERRS:marcewq:1,2013-09-07T23:00:00Z,28.1323,-97.0344,0.0,30.9,2 
NERRS,ioos:station:NOAA.NERRS:marcewq:1,2013-09-07T23:30:00Z,28.1323,-97.0344,0.0,30.9,2 
NERRS,ioos:station:NOAA.NERRS:marcewq:1,2013-09-08T00:00:00Z,28.1323,-97.0344,0.0,30.9,2 
NERRS,ioos:station:NOAA.NERRS:marcewq:1,2013-09-08T00:30:00Z,28.1323,-97.0344,0.0,30.9,2 
NERRS,ioos:station:NOAA.NERRS:marcewq:1,2013-09-08T01:00:00Z,28.1323,-97.0344,0.0,30.9,2 
NERRS,ioos:station:NOAA.NERRS:marcewq:1,2013-09-08T01:30:00Z,28.1323,-97.0344,0.0,30.9,2 
NERRS,ioos:station:NOAA.NERRS:marcewq:1,2013-09-08T02:00:00Z,28.1323,-97.0344,0.0,30.8,2 
NERRS,ioos:station:NOAA.NERRS:marcewq:1,2013-09-08T02:30:00Z,28.1323,-97.0344,0.0,30.8,2 
NERRS,ioos:station:NOAA.NERRS:marcewq:1,2013-09-08T03:00:00Z,28.1323,-97.0344,0.0,30.8,2 
NERRS,ioos:station:NOAA.NERRS:marcewq:1,2013-09-08T03:30:00Z,28.1323,-97.0344,0.0,30.7,2 
NERRS,ioos:station:NOAA.NERRS:marcewq:1,2013-09-08T04:00:00Z,28.1323,-97.0344,0.0,30.6,2 
NERRS,ioos:station:NOAA.NERRS:marcewq:1,2013-09-08T04:30:00Z,28.1323,-97.0344,0.0,30.6,2 
NERRS,ioos:station:NOAA.NERRS:marcewq:1,2013-09-08T05:00:00Z,28.1323,-97.0344,0.0,30.6,2 
NERRS,ioos:station:NOAA.NERRS:marcewq:1,2013-09-08T05:30:00Z,28.1323,-97.0344,0.0,30.5,2 
NERRS,ioos:station:NOAA.NERRS:marcewq:1,2013-09-08T06:00:00Z,28.1323,-97.0344,0.0,30.5,2 
NERRS,ioos:station:NOAA.NERRS:marcewq:1,2013-09-08T06:30:00Z,28.1323,-97.0344,0.0,30.4,2 
NERRS,ioos:station:NOAA.NERRS:marcewq:1,2013-09-08T07:00:00Z,28.1323,-97.0344,0.0,30.4,2 
NERRS,ioos:station:NOAA.NERRS:marcewq:1,2013-09-08T07:30:00Z,28.1323,-97.0344,0.0,30.3,2 
NERRS,ioos:station:NOAA.NERRS:marcewq:1,2013-09-08T08:00:00Z,28.1323,-97.0344,0.0,30.3,2 
NERRS,ioos:station:NOAA.NERRS:marcewq:1,2013-09-08T08:30:00Z,28.1323,-97.0344,0.0,30.3,2 
NERRS,ioos:station:NOAA.NERRS:marcewq:1,2013-09-08T09:00:00Z,28.1323,-97.0344,0.0,30.2,2 
NERRS,ioos:station:NOAA.NERRS:marcewq:1,2013-09-08T09:30:00Z,28.1323,-97.0344,0.0,30.2,2 
NERRS,ioos:station:NOAA.NERRS:marcewq:1,2013-09-08T10:00:00Z,28.1323,-97.0344,0.0,30.1,2 
NERRS,ioos:station:NOAA.NERRS:marcewq:1,2013-09-08T10:30:00Z,28.1323,-97.0344,0.0,30.1,2 
NERRS,ioos:station:NOAA.NERRS:marcewq:1,2013-09-08T11:00:00Z,28.1323,-97.0344,0.0,30.1,2 
NERRS,ioos:station:NOAA.NERRS:marcewq:1,2013-09-08T11:30:00Z,28.1323,-97.0344,0.0,30.1,2 
NERRS,ioos:station:NOAA.NERRS:marcewq:1,2013-09-08T12:00:00Z,28.1323,-97.0344,0.0,30.1,2 
NERRS,ioos:station:NOAA.NERRS:marcewq:1,2013-09-08T12:30:00Z,28.1323,-97.0344,0.0,30.1,2 
NERRS,ioos:station:NOAA.NERRS:marcewq:1,2013-09-08T13:00:00Z,28.1323,-97.0344,0.0,30.0,2 
NERRS,ioos:station:NOAA.NERRS:marcewq:1,2013-09-08T13:30:00Z,28.1323,-97.0344,0.0,30.0,2 
NERRS,ioos:station:NOAA.NERRS:marcewq:1,2013-09-08T14:00:00Z,28.1323,-97.0344,0.0,29.9,2 
NERRS,ioos:station:NOAA.NERRS:marcewq:1,2013-09-08T15:00:00Z,28.1323,-97.0344,0.0,30.0,2 
NERRS,ioos:station:NOAA.NERRS:marcewq:1,2013-09-08T19:00:00Z,28.1323,-97.0344,0.0,29.6,2 
NERRS,ioos:station:NOAA.NERRS:marcewq:1,2013-09-08T19:30:00Z,28.1323,-97.0344,0.0,29.7,2 
NERRS,ioos:station:NOAA.NERRS:marcewq:1,2013-09-08T20:00:00Z,28.1323,-97.0344,0.0,29.7,2 
NERRS,ioos:station:NOAA.NERRS:marcewq:1,2013-09-08T20:30:00Z,28.1323,-97.0344,0.0,29.7,2 
NERRS,ioos:station:NOAA.NERRS:marcewq:1,2013-09-08T21:00:00Z,28.1323,-97.0344,0.0,29.7,2 
NERRS,ioos:station:NOAA.NERRS:marcewq:1,2013-09-08T21:30:00Z,28.1323,-97.0344,0.0,29.8,2 
NERRS,ioos:station:NOAA.NERRS:marcewq:1,2013-09-08T22:00:00Z,28.1323,-97.0344,0.0,29.9,2 
NERRS,ioos:station:NOAA.NERRS:marcewq:1,2013-09-08T22:30:00Z,28.1323,-97.0344,0.0,29.9,2 
NERRS,ioos:station:NOAA.NERRS:marcewq:1,2013-09-08T23:00:00Z,28.1323,-97.0344,0.0,29.9,2 
NERRS,ioos:station:NOAA.NERRS:marcewq:1,2013-09-08T23:30:00Z,28.1323,-97.0344,0.0,29.8,2 
NERRS,ioos:station:NOAA.NERRS:marcewq:1,2013-09-09T00:00:00Z,28.1323,-97.0344,0.0,29.7,2 
NERRS,ioos:station:NOAA.NERRS:marcewq:1,2013-09-09T00:30:00Z,28.1323,-97.0344,0.0,29.8,2 
NERRS,ioos:station:NOAA.NERRS:marcewq:1,2013-09-09T01:00:00Z,28.1323,-97.0344,0.0,29.7,2 
NERRS,ioos:station:NOAA.NERRS:marcewq:1,2013-09-09T01:30:00Z,28.1323,-97.0344,0.0,29.7,2 
NERRS,ioos:station:NOAA.NERRS:marcewq:1,2013-09-09T02:00:00Z,28.1323,-97.0344,0.0,29.7,2 
NERRS,ioos:station:NOAA.NERRS:marcewq:1,2013-09-09T02:30:00Z,28.1323,-97.0344,0.0,29.7,2 
NERRS,ioos:station:NOAA.NERRS:marcewq:1,2013-09-09T03:00:00Z,28.1323,-97.0344,0.0,29.7,2 
NERRS,ioos:station:NOAA.NERRS:marcewq:1,2013-09-09T03:30:00Z,28.1323,-97.0344,0.0,29.7,2 
NERRS,ioos:station:NOAA.NERRS:marcewq:1,2013-09-09T04:00:00Z,28.1323,-97.0344,0.0,29.6,2 
NERRS,ioos:station:NOAA.NERRS:marcewq:1,2013-09-09T04:30:00Z,28.1323,-97.0344,0.0,29.6,2 
NERRS,ioos:station:NOAA.NERRS:marcewq:1,2013-09-09T05:00:00Z,28.1323,-97.0344,0.0,29.6,2 
NERRS,ioos:station:NOAA.NERRS:marcewq:1,2013-09-09T05:30:00Z,28.1323,-97.0344,0.0,29.6,2 
NERRS,ioos:station:NOAA.NERRS:marcewq:1,2013-09-09T06:30:00Z,28.1323,-97.0344,0.0,29.5,2 
NERRS,ioos:station:NOAA.NERRS:marcewq:1,2013-09-09T07:30:00Z,28.1323,-97.0344,0.0,29.4,2 
NERRS,ioos:station:NOAA.NERRS:marcewq:1,2013-09-09T08:00:00Z,28.1323,-97.0344,0.0,29.3,2 
NERRS,ioos:station:NOAA.NERRS:marcewq:1,2013-09-09T08:30:00Z,28.1323,-97.0344,0.0,29.3,2 
NERRS,ioos:station:NOAA.NERRS:marcewq:1,2013-09-09T09:00:00Z,28.1323,-97.0344,0.0,29.3,2 
NERRS,ioos:station:NOAA.NERRS:marcewq:1,2013-09-09T09:30:00Z,28.1323,-97.0344,0.0,29.3,2 
NERRS,ioos:station:NOAA.NERRS:marcewq:1,2013-09-09T10:00:00Z,28.1323,-97.0344,0.0,29.3,2 
NERRS,ioos:station:NOAA.NERRS:marcewq:1,2013-09-09T10:30:00Z,28.1323,-97.0344,0.0,29.2,2 
NERRS,ioos:station:NOAA.NERRS:marcewq:1,2013-09-09T11:00:00Z,28.1323,-97.0344,0.0,29.2,2 
NERRS,ioos:station:NOAA.NERRS:marcewq:1,2013-09-09T11:30:00Z,28.1323,-97.0344,0.0,29.1,2 
NERRS,ioos:station:NOAA.NERRS:marcewq:1,2013-09-09T12:00:00Z,28.1323,-97.0344,0.0,29.1,2 
NERRS,ioos:station:NOAA.NERRS:marcewq:1,2013-09-09T12:30:00Z,28.1323,-97.0344,0.0,29.1,2 
NERRS,ioos:station:NOAA.NERRS:marcewq:1,2013-09-09T13:00:00Z,28.1323,-97.0344,0.0,29.1,2 
NERRS,ioos:station:NOAA.NERRS:marcewq:1,2013-09-09T13:30:00Z,28.1323,-97.0344,0.0,29.1,2 
NERRS,ioos:station:NOAA.NERRS:marcewq:1,2013-09-09T14:30:00Z,28.1323,-97.0344,0.0,29.1,2 
NERRS,ioos:station:NOAA.NERRS:marcewq:1,2013-09-09T15:00:00Z,28.1323,-97.0344,0.0,29.1,2 
NERRS,ioos:station:NOAA.NERRS:marcewq:1,2013-09-09T15:30:00Z,28.1323,-97.0344,0.0,29.1,2 
NERRS,ioos:station:NOAA.NERRS:marcewq:1,2013-09-09T16:00:00Z,28.1323,-97.0344,0.0,29.1,2 
NERRS,ioos:station:NOAA.NERRS:marcewq:1,2013-09-09T17:00:00Z,28.1323,-97.0344,0.0,29.1,2 
NERRS,ioos:station:NOAA.NERRS:marcewq:1,2013-09-09T17:30:00Z,28.1323,-97.0344,0.0,29.1,2 
NERRS,ioos:station:NOAA.NERRS:marcewq:1,2013-09-09T18:00:00Z,28.1323,-97.0344,0.0,29.1,2 
NERRS,ioos:station:NOAA.NERRS:marcewq:1,2013-09-09T18:30:00Z,28.1323,-97.0344,0.0,29.3,2 
NERRS,ioos:station:NOAA.NERRS:marcewq:1,2013-09-09T21:30:00Z,28.1323,-97.0344,0.0,29.6,2 
NERRS,ioos:station:NOAA.NERRS:marcewq:1,2013-09-09T23:30:00Z,28.1323,-97.0344,0.0,29.4,2 
NERRS,ioos:station:NOAA.NERRS:marcewq:1,2013-09-10T00:00:00Z,28.1323,-97.0344,0.0,29.4,2 
NERRS,ioos:station:NOAA.NERRS:marcewq:1,2013-09-10T00:30:00Z,28.1323,-97.0344,0.0,29.3,2 
NERRS,ioos:station:NOAA.NERRS:marcewq:1,2013-09-10T01:00:00Z,28.1323,-97.0344,0.0,29.3,2 
NERRS,ioos:station:NOAA.NERRS:marcewq:1,2013-09-10T01:30:00Z,28.1323,-97.0344,0.0,29.3,2 
NERRS,ioos:station:NOAA.NERRS:marcewq:1,2013-09-10T02:00:00Z,28.1323,-97.0344,0.0,29.2,2 
NERRS,ioos:station:NOAA.NERRS:marcewq:1,2013-09-10T02:30:00Z,28.1323,-97.0344,0.0,29.1,2 
NERRS,ioos:station:NOAA.NERRS:marcewq:1,2013-09-10T03:00:00Z,28.1323,-97.0344,0.0,29.1,2 
NERRS,ioos:station:NOAA.NERRS:marcewq:1,2013-09-10T03:30:00Z,28.1323,-97.0344,0.0,29.0,2 
NERRS,ioos:station:NOAA.NERRS:marcewq:1,2013-09-10T04:00:00Z,28.1323,-97.0344,0.0,29.0,2 
NERRS,ioos:station:NOAA.NERRS:marcewq:1,2013-09-10T04:30:00Z,28.1323,-97.0344,0.0,29.0,2 
NERRS,ioos:station:NOAA.NERRS:marcewq:1,2013-09-10T05:00:00Z,28.1323,-97.0344,0.0,29.0,2 
NERRS,ioos:station:NOAA.NERRS:marcewq:1,2013-09-10T05:30:00Z,28.1323,-97.0344,0.0,28.9,2 
NERRS,ioos:station:NOAA.NERRS:marcewq:1,2013-09-10T06:00:00Z,28.1323,-97.0344,0.0,28.9,2 
NERRS,ioos:station:NOAA.NERRS:marcewq:1,2013-09-10T06:30:00Z,28.1323,-97.0344,0.0,28.8,2 
NERRS,ioos:station:NOAA.NERRS:marcewq:1,2013-09-10T07:00:00Z,28.1323,-97.0344,0.0,28.8,2 
NERRS,ioos:station:NOAA.NERRS:marcewq:1,2013-09-10T07:30:00Z,28.1323,-97.0344,0.0,28.8,2 
NERRS,ioos:station:NOAA.NERRS:marcewq:1,2013-09-10T08:00:00Z,28.1323,-97.0344,0.0,28.8,2 
NERRS,ioos:station:NOAA.NERRS:marcewq:1,2013-09-10T08:30:00Z,28.1323,-97.0344,0.0,28.7,2 
NERRS,ioos:station:NOAA.NERRS:marcewq:1,2013-09-10T09:00:00Z,28.1323,-97.0344,0.0,28.7,2 
NERRS,ioos:station:NOAA.NERRS:marcewq:1,2013-09-10T09:30:00Z,28.1323,-97.0344,0.0,28.7,2 
NERRS,ioos:station:NOAA.NERRS:marcewq:1,2013-09-10T10:00:00Z,28.1323,-97.0344,0.0,28.7,2 
NERRS,ioos:station:NOAA.NERRS:marcewq:1,2013-09-10T10:30:00Z,28.1323,-97.0344,0.0,28.6,2 
NERRS,ioos:station:NOAA.NERRS:marcewq:1,2013-09-10T11:00:00Z,28.1323,-97.0344,0.0,28.6,2 
NERRS,ioos:station:NOAA.NERRS:marcewq:1,2013-09-10T11:30:00Z,28.1323,-97.0344,0.0,28.5,2 
NERRS,ioos:station:NOAA.NERRS:marcewq:1,2013-09-10T12:00:00Z,28.1323,-97.0344,0.0,28.5,2 
NERRS,ioos:station:NOAA.NERRS:marcewq:1,2013-09-10T12:30:00Z,28.1323,-97.0344,0.0,28.5,2 
NERRS,ioos:station:NOAA.NERRS:marcewq:1,2013-09-10T13:00:00Z,28.1323,-97.0344,0.0,28.5,2 
NERRS,ioos:station:NOAA.NERRS:marcewq:1,2013-09-10T13:30:00Z,28.1323,-97.0344,0.0,28.4,2 
NERRS,ioos:station:NOAA.NERRS:marcewq:1,2013-09-10T14:00:00Z,28.1323,-97.0344,0.0,28.4,2 
NERRS,ioos:station:NOAA.NERRS:marcewq:1,2013-09-10T14:30:00Z,28.1323,-97.0344,0.0,28.4,2 
NERRS,ioos:station:NOAA.NERRS:marcewq:1,2013-09-10T15:00:00Z,28.1323,-97.0344,0.0,28.4,2 
NERRS,ioos:station:NOAA.NERRS:marcewq:1,2013-09-10T16:00:00Z,28.1323,-97.0344,0.0,28.5,2 
NERRS,ioos:station:NOAA.NERRS:marcewq:1,2013-09-10T16:30:00Z,28.1323,-97.0344,0.0,28.6,2 
NERRS,ioos:station:NOAA.NERRS:marcewq:1,2013-09-10T18:00:00Z,28.1323,-97.0344,0.0,29.0,2 
NERRS,ioos:station:NOAA.NERRS:marcewq:1,2013-09-10T19:00:00Z,28.1323,-97.0344,0.0,29.3,2 
NERRS,ioos:station:NOAA.NERRS:marcewq:1,2013-09-10T19:30:00Z,28.1323,-97.0344,0.0,29.3,2 
NERRS,ioos:station:NOAA.NERRS:marcewq:1,2013-09-10T20:30:00Z,28.1323,-97.0344,0.0,29.5,2 
NERRS,ioos:station:NOAA.NERRS:marcewq:1,2013-09-10T21:00:00Z,28.1323,-97.0344,0.0,29.6,2 
NERRS,ioos:station:NOAA.NERRS:marcewq:1,2013-09-10T21:30:00Z,28.1323,-97.0344,0.0,29.5,2 
NERRS,ioos:station:NOAA.NERRS:marcewq:1,2013-09-11T00:00:00Z,28.1323,-97.0344,0.0,29.5,2 
NERRS,ioos:station:NOAA.NERRS:marcewq:1,2013-09-11T00:30:00Z,28.1323,-97.0344,0.0,29.4,2 
NERRS,ioos:station:NOAA.NERRS:marcewq:1,2013-09-11T01:00:00Z,28.1323,-97.0344,0.0,29.4,2 
NERRS,ioos:station:NOAA.NERRS:marcewq:1,2013-09-11T01:30:00Z,28.1323,-97.0344,0.0,29.4,2 
NERRS,ioos:station:NOAA.NERRS:marcewq:1,2013-09-11T02:00:00Z,28.1323,-97.0344,0.0,29.3,2 
NERRS,ioos:station:NOAA.NERRS:marcewq:1,2013-09-11T02:30:00Z,28.1323,-97.0344,0.0,29.3,2 
NERRS,ioos:station:NOAA.NERRS:marcewq:1,2013-09-11T03:30:00Z,28.1323,-97.0344,0.0,29.2,2 